Portada
METAR-TAF:

METAR-TAF

Aeropuertos :

Aeródromo de Teruel

Teruel, España

latitud: 40-24-43N, longitud: 01-13-03W, altitud: 1030 m

Observación

El informe se hizo hace 38 minutos, a las 17:00 UTC
Viento 12 kt del norte-noroeste con ráfagas de 22 kt
Temperatura 21°C
Humedad 35%
Presión 1023 hPa
Visibilidad 10 km o más
sin nubes por debajo de 1500 m y sin presencia de cumulonimbus.

METAR: LETL 261700Z AUTO 33012G22KT CAVOK 21/05 Q1023

Hora: 19:38 (17:38 UTC)


TAF: falta

Observaciones y pronósticos meteorológicos de más de 4000 aeropuertos (mensajes METAR y TAF).

Los puntos amarillos y rojos representan las estaciones disponibles.

Ponga el ratón en el punto deseado para ver el nombre de la estación.

Haga clic para ver las observaciones y los pronósticos meteorológicos.

Para cambiar el mapa : haga clic en los botones verdes con una cruz de color negro para hacer un zoom, en el botón verde con un guión para alejar o en las flechas verdes para mapas adyacentes.


METAR-TAF: